SCP
1 2 1 2 2 2 1 1 1 1 1 1 1 1 1 1 1 0 0 0 0 0
1 1 2 1 1 1 1 1 1 1 1 0 0 0 0 1 0 0 0 0 0 0
2 2 1 1 1 1 1 1 1 1 0 0 0 0 0 0 0 0 0 0 0 0
2 1 2 1 1 1 1 1 1 0 0 0 0 0 0 0 0 0 0 0 0 0
1 1 1 1 1 1 1 0 0 0 0 0 0 0 0 0 0 0 0 0 0 0
1 1 1 1 1 0 0 0 0 0 0 0 0 0 0 0 0 0 0 0 0 0
1 1 1 0 0 0 0 0 0 0 0 0 0 0 0 0 0 0 0 0 0 0
1 0 0 0 0 0 0 0 0 0 0 0 0 0 0 0 0 0 0 0 0 0
0 0 0 0 0 0 0 0 0 0 0 0 0 0 0 0 0 0 0 0 0 0
0 0 0 0 0 0 0 0 0 0 0 0 0 0 0 0 0 0 0 0 0 0
0 0 0 0 0 0 0 0 0 0 0 0 0 0 0 0 0 0 0 0 0 -0
0 0 0 0 0 0 0 0 0 0 0 0 0 0 0 0 0 0 0 0 -0 0
0 0 0 0 0 0 0 -0 -0 0 0 -0 0 0 0 0 0 0 0 -0 0 -0
-0 -0 -0 -0 0 0 -0 -0 -0 -0 0 0 0 0 0 0 0 0 -0 -0 0 0
Wind_Speed_500mb
76 69 59 72 67 69 59 54 46 40 31 43 36 40 35 36 35 37 37 35 32 34
70 65 68 65 64 59 45 41 38 36 36 38 34 37 36 32 34 34 34 34 31 33
62 65 65 67 60 49 39 34 39 43 41 38 38 31 28 28 30 33 30 28 25 27
51 55 57 54 46 41 41 38 41 43 42 40 35 33 29 28 29 26 26 26 27 28
48 57 55 47 49 44 43 37 40 43 39 28 29 25 24 22 20 25 29 30 30 28
57 54 55 57 52 53 48 44 38 30 29 30 19 19 17 18 21 23 27 28 26 26
62 61 61 59 66 55 49 45 38 33 30 25 24 24 24 26 28 28 31 30 30 31
57 51 50 48 47 52 47 41 34 33 35 27 24 22 24 24 30 31 27 21 22 29
55 53 48 45 41 40 41 40 41 33 30 24 21 21 23 23 17 16 20 25 22 26
55 49 42 44 46 43 41 38 33 31 26 22 20 18 17 14 11 6 8 17 24 28
45 44 46 46 41 40 36 34 32 27 22 16 17 17 15 16 10 7 8 12 24 26
53 46 46 45 40 37 35 35 29 22 15 18 20 18 16 14 12 11 15 20 24 22
44 48 43 40 37 37 32 27 28 21 17 21 20 19 14 12 10 12 18 22 26 27
38 37 44 38 38 30 28 33 30 20 20 21 18 17 15 13 13 10 14 23 33 31
Wind_Direction_500mb
247 240 230 226 234 237 243 244 235 222 205 203 205 207 212 212 217 214 225 233 228 226
235 229 223 226 234 239 237 232 226 191 191 189 198 205 208 213 222 231 235 236 228 226
226 220 231 226 226 221 230 196 181 181 180 183 190 202 219 225 231 231 233 223 232 225
219 218 211 210 208 206 185 174 179 181 176 182 194 211 221 226 221 222 224 231 236 234
196 192 191 191 185 181 175 169 175 174 178 191 212 216 210 225 241 243 241 239 242 241
183 183 186 183 181 178 174 163 168 174 182 194 199 193 205 238 257 251 246 241 238 239
170 176 179 179 170 167 158 157 166 176 192 187 191 206 227 238 240 248 253 253 242 230
168 173 162 156 155 154 159 166 174 171 178 187 212 217 228 247 255 254 247 226 230 223
167 164 155 152 153 154 159 165 177 180 191 199 212 232 249 250 239 242 235 224 224 218
159 157 156 154 155 159 166 172 183 182 197 207 227 238 228 214 215 220 212 219 208 200
157 156 154 157 160 165 171 179 178 189 204 227 212 205 187 185 193 218 165 148 155 157
150 155 160 163 166 170 179 173 183 191 207 190 183 178 183 170 203 198 168 155 161 162
158 160 167 169 174 176 178 186 186 181 180 163 170 177 174 145 163 182 171 169 161 161
161 164 173 171 179 174 175 177 176 179 160 156 167 174 166 154 131 127 180 176 168 157
Wind_Speed_850mb
76 69 59 72 67 69 59 54 46 40 31 43 36 40 35 36 35 37 37 35 32 34
70 65 68 65 64 59 45 41 38 36 36 38 34 37 36 32 34 34 34 34 31 33
62 65 65 67 60 49 39 34 39 43 41 38 38 31 28 28 30 33 30 28 25 27
51 55 57 54 46 41 41 38 41 43 42 40 35 33 29 28 29 26 26 26 27 28
48 57 55 47 49 44 43 37 40 43 39 28 29 25 24 22 20 25 29 30 30 28
57 54 55 57 52 53 48 44 38 30 29 30 19 19 17 18 21 23 27 28 26 26
62 61 61 59 66 55 49 45 38 33 30 25 24 24 24 26 28 28 31 30 30 31
57 51 50 48 47 52 47 41 34 33 35 27 24 22 24 24 30 31 27 21 22 29
55 53 48 45 41 40 41 40 41 33 30 24 21 21 23 23 17 16 20 25 22 26
55 49 42 44 46 43 41 38 33 31 26 22 20 18 17 14 11 6 8 17 24 28
45 44 46 46 41 40 36 34 32 27 22 16 17 17 15 16 10 7 8 12 24 26
53 46 46 45 40 37 35 35 29 22 15 18 20 18 16 14 12 11 15 20 24 22
44 48 43 40 37 37 32 27 28 21 17 21 20 19 14 12 10 12 18 22 26 27
38 37 44 38 38 30 28 33 30 20 20 21 18 17 15 13 13 10 14 23 33 31
Wind_Direction_850mb
247 240 230 226 234 237 243 244 235 222 205 203 205 207 212 212 217 214 225 233 228 226
235 229 223 226 234 239 237 232 226 191 191 189 198 205 208 213 222 231 235 236 228 226
226 220 231 226 226 221 230 196 181 181 180 183 190 202 219 225 231 231 233 223 232 225
219 218 211 210 208 206 185 174 179 181 176 182 194 211 221 226 221 222 224 231 236 234
196 192 191 191 185 181 175 169 175 174 178 191 212 216 210 225 241 243 241 239 242 241
183 183 186 183 181 178 174 163 168 174 182 194 199 193 205 238 257 251 246 241 238 239
170 176 179 179 170 167 158 157 166 176 192 187 191 206 227 238 240 248 253 253 242 230
168 173 162 156 155 154 159 166 174 171 178 187 212 217 228 247 255 254 247 226 230 223
167 164 155 152 153 154 159 165 177 180 191 199 212 232 249 250 239 242 235 224 224 218
159 157 156 154 155 159 166 172 183 182 197 207 227 238 228 214 215 220 212 219 208 200
157 156 154 157 160 165 171 179 178 189 204 227 212 205 187 185 193 218 165 148 155 157
150 155 160 163 166 170 179 173 183 191 207 190 183 178 183 170 203 198 168 155 161 162
158 160 167 169 174 176 178 186 186 181 180 163 170 177 174 145 163 182 171 169 161 161
161 164 173 171 179 174 175 177 176 179 160 156 167 174 166 154 131 127 180 176 168 157